Home   Weather   Lincoln   Past weeks

Flag for USA Past Weather in Lincoln, Nebraska, USA — Yesterday and Last 2 Weeks

Now
56 °F

Clear.


Feels Like: 55 °F
Forecast: 51 / 71 °F
Wind: 6 mph from North

Location: Lincoln Municipal Airport

Current Time: Sep 30, 2016 at 10:20:29 PM

Latest Report: Sep 30, 2016 at 9:54 PM


Visibility: 9 mi

Pressure: 30.16 "Hg

Humidity: 77%

Dew Point: 49 °F

Location of LincolnLocation

Past Weather in Lincoln — Graph

°F

Lincoln Temperature Yesterday

Maximum temperature yesterday: 72 °F (at 4:54 PM)
Minimum temperature yesterday: 43 °F (at 3:54 AM)
Average temperature yesterday: 56 °F

High & Low Weather Summary for the Past Weeks

 TemperatureHumidityPressure
High95 °F (Sep 20, 3:54 PM)97% (Sep 16, 4:54 AM)30.47 "Hg (Sep 16, 4:54 AM)
Low43 °F (Sep 29, 3:54 AM)23% (Sep 26, 3:54 PM)29.79 "Hg (Sep 18, 5:54 PM)
Average69 °F68%30.02 "Hg
* Reported Sep 15 8:54 PM — Sep 30 8:54 PM, Lincoln, Weather by CustomWeather, © 2016

Note: Actual official high and low records may vary slightly from our data, if they occured in-between our weather recording intervals... More about our weather records

Advertising

Lincoln Weather History for the Previous 24 Hours

Scroll right to see more
 ConditionsComfort  
Time TempWeatherWind HumidityBarometerVisibility
8:54 PM
Fri, Sep 30
58 °FClear.6 mph75%30.14 "Hg10 mi
7:54 PM59 °FClear.5 mph72%30.15 "Hg9 mi
6:54 PM64 °FSunny.5 mph58%30.16 "Hg10 mi
5:54 PM70 °FSunny.5 mph44%30.16 "Hg10 mi
4:54 PM73 °FSunny.3 mph34%30.16 "Hg10 mi
3:54 PM74 °FSunny.9 mph35%30.17 "Hg10 mi
2:54 PM75 °FSunny.8 mph37%30.19 "Hg10 mi
1:54 PM74 °FSunny.10 mph40%30.22 "Hg10 mi
12:54 PM71 °FSunny.6 mph47%30.24 "Hg10 mi
11:54 AM68 °FSunny.3 mph55%30.27 "Hg10 mi
10:54 AM63 °FSunny.5 mph65%30.30 "Hg10 mi
9:54 AM58 °FSunny.No wind75%30.32 "Hg10 mi
8:54 AM51 °FSunny.5 mph83%30.32 "Hg10 mi
7:54 AM44 °FSunny.3 mph93%30.32 "Hg10 mi
6:54 AM43 °FClear.5 mph97%30.31 "Hg10 mi
5:54 AM46 °FClear.3 mph89%30.31 "Hg9 mi
4:54 AM44 °FClear.5 mph93%30.31 "Hg10 mi
3:54 AM45 °FClear.5 mph97%30.32 "Hg10 mi
2:54 AM45 °FClear.6 mph93%30.33 "Hg10 mi
1:54 AM46 °FClear.3 mph93%30.33 "Hg10 mi
12:54 AM47 °FClear.5 mph93%30.34 "Hg10 mi
11:54 PM
Thu, Sep 29
50 °FClear.6 mph89%30.35 "Hg10 mi
10:54 PM51 °FClear.6 mph86%30.35 "Hg10 mi
Weather by CustomWeather, © 2016

See weather overviewHow to use our weather pages